GW0795 Weather Reports


time (UTC)temp
F
wind
direction
speed
knots
gust
knots
rain 1hr
in
rain 24hr
in
rain mn
in
humidity
%
barometer
mb
20260506224506 57 204 1.7 4.3 0.00 0.00 0.00 74 1020.9
20260506224005 57 196 0.9 2.6 0.00 0.00 0.00 73 1020.9
20260506223506 57 182 0.9 3.5 0.00 0.00 0.00 74 1020.9
20260506223010 57 211 0.9 3.5 0.00 0.00 0.00 74 1020.9
20260506222507 56 315 0.9 4.3 0.00 0.00 0.00 74 1020.8
20260506222010 56 202 0.9 6.1 0.00 0.00 0.00 75 1021.0
20260506221517 56 189 0.9 6.1 0.00 0.00 0.00 74 1021.1
20260506221010 56 308 0.9 4.3 0.00 0.00 0.00 74 1021.2
20260506220507 57 217 1.7 7.0 0.00 0.00 0.00 74 1021.1
20260506220003 56 239 1.7 8.7 0.00 0.00 0.00 75 1021.1
20260506215504 56 182 0.9 8.7 0.00 0.00 0.00 76 1021.1
20260506215006 56 311 1.7 5.2 0.00 0.00 0.00 76 1021.1
20260506214507 56 179 0.9 5.2 0.00 0.00 0.00 76 1021.1
20260506214003 56 192 0.9 4.3 0.00 0.00 0.00 75 1021.2
20260506213505 56 202 0.9 4.3 0.00 0.00 0.00 75 1021.2
20260506213011 56 154 0.0 3.5 0.00 0.00 0.00 76 1021.1
20260506212506 56 199 0.9 4.3 0.00 0.00 0.00 75 1021.1
20260506212009 56 209 0.9 4.3 0.00 0.00 0.00 77 1021.1
20260506211512 56 180 0.0 2.6 0.00 0.00 0.00 75 1021.1
20260506211006 56 180 0.0 2.6 0.00 0.00 0.00 76 1021.1
20260506210515 56 229 0.0 3.5 0.00 0.00 0.00 77 1021.1
20260506210043 56 209 0.0 3.5 0.00 0.00 0.00 76 1021.1
20260506205509 56 238 0.0 3.5 0.00 0.00 0.00 76 1021.0
20260506205006 56 186 0.9 2.6 0.00 0.00 0.00 76 1021.0
20260506204524 56 183 0.9 4.3 0.00 0.00 0.00 76 1021.0
20260506204004 56 184 0.0 4.3 0.00 0.00 0.00 77 1021.1
20260506203503 56 218 1.7 4.3 0.00 0.00 0.00 77 1021.1
20260506203009 56 24 0.9 2.6 0.00 0.00 0.00 76 1021.0
20260506202503 56 253 0.0 2.6 0.00 0.00 0.00 77 1021.0
20260506202007 56 175 0.9 2.6 0.00 0.00 0.00 76 1021.0
20260506201519 56 229 0.9 3.5 0.00 0.00 0.00 77 1020.9
20260506201007 55 179 0.0 3.5 0.00 0.00 0.00 77 1021.0
20260506200507 56 205 0.0 3.5 0.00 0.00 0.00 78 1020.9
20260506200016 55 101 0.9 3.5 0.00 0.00 0.00 78 1020.9
20260506195507 55 213 0.9 3.5 0.00 0.00 0.00 78 1020.9
20260506195008 55 212 0.9 1.7 0.00 0.00 0.00 78 1020.8
20260506194523 55 165 0.0 3.5 0.00 0.00 0.00 78 1020.8
20260506194008 54 215 0.9 3.5 0.00 0.00 0.00 79 1020.7
20260506193511 54 204 1.7 3.5 0.00 0.00 0.00 79 1020.7
20260506193033 54 117 0.0 3.5 0.00 0.00 0.00 80 1020.7
20260506192503 54 205 0.9 4.3 0.00 0.00 0.00 79 1020.7
20260506192006 54 221 1.7 4.3 0.00 0.00 0.00 80 1020.7
20260506191512 54 221 0.0 3.5 0.00 0.00 0.00 81 1020.7
20260506191004 54 190 0.9 3.5 0.00 0.00 0.00 80 1020.7
20260506190509 54 195 0.9 3.5 0.00 0.00 0.00 81 1020.7
20260506190017 54 188 1.7 3.5 0.00 0.00 0.00 81 1020.7
20260506185510 54 161 0.9 3.5 0.00 0.00 0.00 82 1020.7
20260506185007 54 132 0.9 2.6 0.00 0.00 0.00 81 1020.7
20260506184527 54 199 0.0 4.3 0.00 0.00 0.00 82 1020.7
20260506184009 54 198 0.0 4.3 0.00 0.00 0.00 84 1020.7
20260506183512 53 209 0.9 3.5 0.00 0.00 0.00 83 1020.7
20260506183024 53 197 0.0 2.6 0.00 0.00 0.00 83 1020.7
20260506182511 54 190 0.0 1.7 0.00 0.00 0.00 84 1020.8
20260506182009 54 198 0.9 2.6 0.00 0.00 0.00 85 1020.8
20260506181536 53 190 0.9 2.6 0.00 0.00 0.00 84 1020.6
20260506181004 53 173 0.9 2.6 0.00 0.00 0.00 85 1020.5
20260506180504 53 167 0.0 5.2 0.00 0.00 0.00 86 1020.5
20260506180014 53 198 0.9 5.2 0.00 0.00 0.00 87 1020.5
20260506175505 53 191 0.9 3.5 0.00 0.00 0.00 86 1020.6
20260506175005 53 223 0.0 2.6 0.00 0.00 0.00 87 1020.5
20260506174519 53 228 0.0 3.5 0.00 0.00 0.00 88 1020.5
20260506174006 52 209 1.7 5.2 0.00 0.00 0.00 88 1020.5
20260506173509 52 201 0.9 5.2 0.00 0.00 0.00 88 1020.7
20260506173020 53 201 0.0 5.2 0.00 0.00 0.00 88 1020.5
20260506172512 53 220 0.9 4.3 0.00 0.00 0.00 88 1020.6
20260506172011 53 230 0.0 2.6 0.00 0.00 0.00 89 1020.6
20260506171529 52 188 0.0 3.5 0.00 0.00 0.00 89 1020.7
20260506171011 52 180 0.9 4.3 0.00 0.00 0.00 89 1020.6
20260506170512 52 170 0.0 4.3 0.00 0.00 0.00 90 1020.5
20260506170029 52 215 1.7 4.3 0.00 0.00 0.00 89 1020.5
20260506165505 52 198 0.0 4.3 0.00 0.00 0.00 90 1020.5
20260506165004 52 176 0.9 2.6 0.00 0.00 0.00 91 1020.5
20260506164535 52 184 0.9 4.3 0.00 0.00 0.00 91 1020.4
20260506164005 52 159 0.0 4.3 0.00 0.00 0.00 92 1020.3
20260506163507 52 200 1.7 4.3 0.00 0.00 0.00 92 1020.2
20260506163022 51 192 0.0 2.6 0.00 0.00 0.00 92 1020.1
20260506162510 51 200 0.9 2.6 0.00 0.00 0.00 92 1020.0
20260506162008 51 168 0.9 5.2 0.00 0.00 0.00 92 1020.0
20260506161524 51 187 1.7 4.3 0.00 0.00 0.00 92 1019.9
20260506161010 51 207 0.0 4.3 0.00 0.00 0.00 92 1019.8
20260506160510 51 200 0.9 2.6 0.00 0.00 0.00 92 1019.9
20260506160030 51 191 0.0 4.3 0.00 0.00 0.00 92 1020.0
20260506155509 51 213 0.0 3.5 0.00 0.00 0.00 92 1020.0
20260506155010 51 190 1.7 3.5 0.00 0.00 0.00 92 1020.1
20260506154529 51 216 0.0 1.7 0.00 0.00 0.00 92 1020.2
20260506154008 51 245 0.0 1.7 0.00 0.00 0.00 92 1020.3
20260506153511 51 88 0.0 1.7 0.00 0.00 0.00 92 1020.3
20260506153014 51 209 0.0 1.7 0.00 0.00 0.00 92 1020.2
20260506152508 51 177 0.9 1.7 0.00 0.00 0.00 91 1020.1
20260506152009 51 191 0.0 1.7 0.00 0.00 0.00 92 1020.0
20260506151502 51 190 0.0 3.5 0.00 0.00 0.00 92 1019.8
20260506151001 51 195 0.9 4.3 0.00 0.00 0.00 91 1019.7
20260506150502 51 196 1.7 4.3 0.00 0.00 0.00 91 1019.8
20260506150005 51 218 0.0 3.5 0.00 0.00 0.00 91 1019.9
20260506145505 51 184 0.0 1.7 0.00 0.00 0.00 92 1019.9
20260506145008 51 302 0.0 1.7 0.00 0.00 0.00 92 1020.0
20260506144521 51 36 0.0 1.7 0.00 0.00 0.00 92 1020.0
20260506144008 51 276 0.0 4.3 0.00 0.00 0.00 91 1020.0
20260506143506 51 255 0.0 4.3 0.00 0.00 0.00 91 1019.9
20260506143017 51 252 0.0 2.6 0.00 0.00 0.00 91 1019.7
20260506142505 51 222 0.0 2.6 0.00 0.00 0.00 91 1019.8
20260506142009 51 211 0.0 4.3 0.00 0.00 0.00 91 1019.6
20260506141528 51 200 0.9 4.3 0.00 0.00 0.00 91 1019.5
20260506141015 51 201 0.9 1.7 0.00 0.00 0.00 90 1019.7
20260506140502 51 196 0.0 1.7 0.00 0.00 0.00 90 1019.7
20260506140006 51 188 0.0 2.6 0.00 0.00 0.00 90 1019.7
20260506135503 51 180 0.0 4.3 0.00 0.00 0.00 90 1019.8
20260506135003 51 180 0.0 4.3 0.00 0.00 0.00 90 1019.6
20260506134508 52 105 0.9 1.7 0.00 0.00 0.00 90 1019.5
20260506134003 52 94 0.0 1.7 0.00 0.00 0.00 90 1019.7
20260506133504 52 249 0.0 1.7 0.00 0.00 0.00 90 1019.6
20260506133016 52 209 0.0 2.6 0.00 0.00 0.00 89 1019.4
20260506132507 52 198 0.0 2.6 0.00 0.00 0.00 89 1019.5
20260506132007 52 201 0.0 1.7 0.00 0.00 0.00 89 1019.5
20260506131520 52 199 0.0 4.3 0.00 0.00 0.00 89 1019.3
20260506131006 51 185 0.9 4.3 0.00 0.00 0.00 89 1019.0
20260506130508 52 181 0.9 4.3 0.00 0.00 0.00 89 1019.2
20260506130024 52 200 0.0 2.6 0.00 0.00 0.00 89 1019.2
20260506125510 52 217 0.0 1.7 0.00 0.00 0.00 89 1019.2
20260506125002 52 202 0.0 1.7 0.00 0.00 0.00 89 1019.2
20260506124508 52 202 0.9 1.7 0.00 0.00 0.00 89 1019.1
20260506124006 52 157 0.0 1.7 0.00 0.00 0.00 89 1019.0
20260506123503 52 157 0.0 0.9 0.00 0.00 0.00 89 1019.0
20260506123014 52 185 0.0 0.0 0.00 0.00 0.00 89 1019.0
20260506122505 52 185 0.0 0.0 0.00 0.00 0.00 89 1019.0
20260506122012 52 185 0.0 0.0 0.00 0.00 0.00 89 1018.9
20260506121519 52 179 0.0 0.9 0.00 0.00 0.00 89 1018.8
20260506121009 52 194 0.0 1.7 0.00 0.00 0.00 89 1018.8
20260506120507 52 202 0.0 1.7 0.00 0.00 0.00 89 1018.8
20260506120043 52 186 0.9 3.5 0.00 0.00 0.00 89 1018.8
20260506115512 52 246 0.0 3.5 0.00 0.00 0.00 89 1018.7
20260506115007 52 199 0.0 1.7 0.00 0.00 0.00 89 1018.7
20260506114526 52 200 0.0 1.7 0.00 0.00 0.00 89 1018.6
20260506114012 52 174 0.0 1.7 0.00 0.00 0.00 89 1018.6
20260506113510 52 184 0.0 0.0 0.00 0.00 0.00 89 1018.6
20260506113012 52 199 0.0 1.7 0.00 0.00 0.00 89 1018.6
20260506112504 52 199 0.0 1.7 0.00 0.00 0.00 88 1018.6
20260506112007 52 185 0.0 1.7 0.00 0.00 0.00 88 1018.6
20260506111515 52 180 0.9 1.7 0.00 0.00 0.00 88 1018.6
20260506111003 52 194 0.0 1.7 0.00 0.00 0.00 88 1018.6
20260506110507 52 194 0.0 1.7 0.00 0.00 0.00 88 1018.6
20260506110024 52 212 0.9 1.7 0.00 0.00 0.00 88 1018.5
20260506105508 52 229 0.0 1.7 0.00 0.00 0.00 88 1018.5
20260506105006 52 213 0.0 2.6 0.00 0.00 0.00 88 1018.4
20260506104536 52 213 0.9 4.3 0.00 0.00 0.00 88 1018.4
20260506104011 52 216 1.7 4.3 0.00 0.00 0.00 87 1018.4
20260506103508 52 202 0.9 2.6 0.00 0.00 0.00 88 1018.3
20260506103038 52 214 0.9 2.6 0.00 0.00 0.00 87 1018.3
20260506102516 52 196 0.0 3.5 0.00 0.00 0.00 88 1018.3
20260506102007 52 196 0.0 3.5 0.00 0.00 0.00 88 1018.3
20260506101513 52 198 0.9 2.6 0.00 0.00 0.00 87 1018.2
20260506101009 52 214 0.0 0.9 0.00 0.00 0.00 88 1018.2
20260506100506 52 214 0.0 0.9 0.00 0.00 0.00 88 1018.1
20260506100015 52 227 0.0 2.6 0.00 0.00 0.00 88 1018.1
20260506095505 52 227 0.0 2.6 0.00 0.00 0.00 88 1018.1
20260506095009 52 227 0.0 2.6 0.00 0.00 0.00 87 1018.0
20260506094520 52 215 0.0 0.0 0.00 0.00 0.00 88 1018.0
20260506094012 52 215 0.0 0.0 0.00 0.00 0.00 88 1018.0
20260506093510 52 215 0.0 1.7 0.00 0.00 0.00 88 1018.1
20260506093024 52 215 0.0 3.5 0.00 0.00 0.00 88 1018.0
20260506092508 52 216 0.9 3.5 0.00 0.00 0.00 88 1018.0
20260506092013 52 202 0.0 0.9 0.00 0.00 0.00 88 1018.0
20260506091528 52 240 0.0 1.7 0.00 0.00 0.00 88 1018.0
20260506091007 52 217 0.0 1.7 0.00 0.00 0.00 88 1017.9
20260506090503 52 221 0.0 1.7 0.00 0.00 0.00 88 1017.9
20260506090015 52 208 0.0 0.0 0.00 0.00 0.00 88 1017.9
20260506085507 52 208 0.0 0.0 0.00 0.00 0.00 88 1017.8
20260506085004 52 208 0.0 0.0 0.00 0.00 0.00 88 1017.8
20260506084539 52 208 0.0 1.7 0.00 0.00 0.00 88 1017.7
20260506084012 52 208 0.0 2.6 0.00 0.00 0.00 88 1017.7
20260506083508 52 207 0.0 3.5 0.00 0.00 0.00 87 1017.6
20260506082500 52 195 0.0 3.5 0.00 0.00 0.00 88 1017.6
20260506082004 52 186 0.9 4.3 0.00 0.00 0.00 88 1017.6
20260506081508 51 203 0.9 4.3 0.00 0.00 0.00 88 1017.6
20260506081008 51 240 0.9 3.5 0.00 0.00 0.00 88 1017.6
20260506080504 51 198 0.0 3.5 0.00 0.00 0.00 88 1017.5
20260506073505 52 208 0.0 1.7 0.00 0.00 0.00 88 1017.3
20260506073002 52 209 0.0 1.7 0.00 0.00 0.00 88 1017.4
20260506072502 52 209 0.0 1.7 0.00 0.00 0.00 88 1017.3
20260506072001 52 209 0.0 1.7 0.00 0.00 0.00 87 1017.3
20260506071505 52 209 0.0 1.7 0.00 0.00 0.00 87 1017.3
20260506071004 52 189 0.0 0.0 0.00 0.00 0.00 87 1017.2
20260506070504 52 184 0.0 0.0 0.00 0.00 0.00 87 1017.1
20260506062508 53 193 0.0 0.0 0.00 0.00 0.00 87 1016.8
20260506062010 53 195 0.0 0.9 0.00 0.00 0.00 86 1016.7
20260506061504 53 196 0.0 1.7 0.00 0.00 0.00 87 1016.6
20260506061004 53 200 0.0 1.7 0.00 0.00 0.00 86 1016.5
20260506060504 54 200 0.0 1.7 0.00 0.00 0.00 86 1016.5
20260506051010 55 185 0.0 1.7 0.00 0.00 0.00 83 1016.0
20260506050507 56 172 0.0 1.7 0.00 0.00 0.00 83 1016.0
20260506045005 56 219 0.0 2.6 0.00 0.00 0.00 83 1015.9
20260506044513 56 200 0.0 2.6 0.00 0.00 0.00 83 1015.9
20260506044006 56 190 0.0 2.6 0.00 0.00 0.00 83 1015.9
20260506043508 56 205 0.0 2.6 0.00 0.00 0.00 84 1015.9
20260506043014 56 211 0.0 0.9 0.00 0.00 0.00 83 1015.9
20260506042508 56 211 0.0 0.9 0.00 0.00 0.00 83 1015.9
20260506042008 56 212 0.0 0.0 0.00 0.00 0.00 83 1015.9
20260506041520 56 212 0.0 0.0 0.00 0.00 0.00 83 1015.9
20260506041009 56 212 0.0 0.0 0.00 0.00 0.00 82 1015.9
20260506040510 56 212 0.0 0.0 0.00 0.00 0.00 82 1015.8
20260506040023 56 212 0.0 0.0 0.00 0.00 0.00 82 1015.8
20260506035508 57 212 0.0 0.0 0.00 0.00 0.00 81 1015.7
20260506035008 57 212 0.0 0.0 0.00 0.00 0.00 81 1015.7
20260506034529 57 212 0.0 0.0 0.00 0.00 0.00 82 1015.7
20260506034004 57 212 0.0 0.0 0.00 0.00 0.00 81 1015.6
20260506033504 57 212 0.0 0.0 0.00 0.00 0.00 80 1015.6
20260506033014 58 212 0.0 0.0 0.00 0.00 0.00 80 1015.5
20260506032504 58 212 0.0 0.0 0.00 0.00 0.00 79 1015.6
20260506032010 58 212 0.0 0.0 0.00 0.00 0.00 80 1015.6
20260506031516 58 212 0.0 0.0 0.00 0.00 0.00 79 1015.4
20260506031008 58 212 0.0 0.0 0.00 0.00 0.00 78 1015.4
20260506030512 59 212 0.0 0.0 0.00 0.00 0.00 78 1015.4
20260506030020 59 212 0.0 2.6 0.00 0.00 0.00 78 1015.3
20260506025511 59 212 0.0 2.6 0.00 0.00 0.00 77 1015.3
20260506025010 59 173 0.0 1.7 0.00 0.00 0.00 77 1015.3
20260506024524 59 143 0.0 2.6 0.00 0.00 0.00 77 1015.2
20260506024015 60 156 0.0 3.5 0.00 0.00 0.00 76 1015.2
20260506023513 60 171 0.9 3.5 0.00 0.00 0.00 75 1015.2
20260506023045 60 142 0.0 1.7 0.00 0.00 0.00 75 1015.4
20260506022506 60 185 0.0 1.7 0.00 0.00 0.00 75 1015.3
20260506022003 60 174 0.0 2.6 0.00 0.00 0.00 75 1015.3
20260506021521 61 174 0.9 1.7 0.00 0.00 0.00 74 1015.3
20260506021011 61 149 0.0 1.7 0.00 0.00 0.00 73 1015.3
20260506020508 61 130 0.9 1.7 0.00 0.00 0.00 72 1015.3
20260506020025 61 213 0.9 2.6 0.00 0.00 0.00 72 1015.3
20260506015501 61 188 0.0 2.6 0.00 0.00 0.00 72 1015.3
20260506015004 61 242 0.0 2.6 0.00 0.00 0.00 71 1015.3
20260506014504 61 156 0.9 6.1 0.00 0.00 0.00 71 1015.3
20260506014004 61 207 0.0 6.1 0.00 0.00 0.00 72 1015.3
20260506013504 61 200 0.9 4.3 0.00 0.00 0.00 71 1015.3
20260506013007 61 142 0.0 3.5 0.00 0.00 0.00 72 1015.3
20260506012503 61 178 0.0 3.5 0.00 0.00 0.00 72 1015.3
20260506012008 61 194 0.0 3.5 0.00 0.00 0.00 73 1015.3
20260506011514 61 165 0.9 3.5 0.00 0.00 0.00 71 1015.3
20260506011004 61 215 0.9 4.3 0.00 0.00 0.00 73 1015.5
20260506010504 61 157 2.6 4.3 0.00 0.00 0.00 72 1015.4
20260506010016 61 166 1.7 4.3 0.00 0.00 0.00 71 1015.4
20260506005500 62 166 0.0 2.6 0.00 0.00 0.00 71 1015.3
20260506005000 61 172 0.9 3.5 0.00 0.00 0.00 72 1015.4
20260506004505 61 130 0.9 3.5 0.00 0.00 0.00 72 1015.4
20260506004006 61 294 1.7 3.5 0.00 0.00 0.00 71 1015.5
20260506003507 62 277 1.7 2.6 0.00 0.00 0.00 71 1015.6
20260506003004 62 295 0.9 4.3 0.00 0.00 0.00 71 1015.6
20260506002503 62 308 0.0 4.3 0.00 0.00 0.00 72 1015.6
20260506002003 62 333 1.7 5.2 0.00 0.00 0.00 71 1015.6
20260506001509 61 302 0.9 6.1 0.00 0.00 0.00 72 1015.6
20260506001004 61 281 1.7 6.1 0.00 0.00 0.00 72 1015.6
20260506000507 61 230 1.7 3.5 0.00 0.00 0.00 72 1015.7
20260506000014 61 296 0.9 3.5 0.00 0.00 0.00 71 1015.8
20260505235508 61 281 1.7 6.1 0.00 0.00 0.00 71 1015.8
20260505235006 61 257 1.7 6.1 0.00 0.00 0.00 72 1015.8
20260505234519 61 285 1.7 5.2 0.00 0.00 0.00 72 1015.9
20260505234004 61 277 1.7 6.1 0.00 0.00 0.00 72 1015.9
20260505233508 61 335 2.6 5.2 0.00 0.00 0.00 71 1016.0
20260505233004 61 173 0.9 5.2 0.00 0.00 0.00 73 1016.1
20260505232504 61 344 1.7 5.2 0.00 0.00 0.00 72 1016.1
20260505232004 61 292 2.6 6.1 0.00 0.00 0.00 71 1016.0
20260505231512 62 240 2.6 6.1 0.00 0.00 0.00 70 1016.0
20260505231005 62 199 1.7 5.2 0.00 0.00 0.00 70 1016.0
20260505230504 61 350 0.0 2.6 0.00 0.00 0.00 70 1016.0
20260505230021 62 225 0.9 5.2 0.00 0.00 0.00 70 1016.1
20260505225509 61 278 0.9 5.2 0.00 0.00 0.00 71 1016.2
20260505225008 62 317 0.9 6.1 0.00 0.00 0.00 71 1016.3